Dewpoint
50 50 50 51 51 51 50 50 50 50 51 51 51 51 52 52 52 52 51 51 50 51 52 52 52 54 50 43 31 18 52 46 52 48 32 34 44 42 40 40 39 38 39 39 40 39 38
49 49 49 49 49 49 49 49 48 50 51 51 51 51 51 51 51 52 52 52 52 50 50 51 52 52 47 39 37 25 41 29 27 46 39 30 34 42 39 37 39 40 39 38 39 38 37
49 48 48 48 49 49 48 47 49 50 50 50 51 51 51 50 50 51 52 53 52 52 50 49 51 48 45 41 44 44 44 37 28 37 39 35 29 27 30 27 28 28 30 31 30 29 32
48 47 48 48 48 47 46 48 49 49 49 49 50 51 51 50 50 50 51 52 53 52 51 50 50 46 39 44 45 45 44 41 37 22 32 38 36 31 27 27 26 24 26 23 24 30 31
46 46 46 46 46 46 45 48 49 48 49 49 50 52 51 50 51 51 51 52 52 51 51 48 45 44 37 45 42 44 42 34 24 17 15 21 34 31 27 26 24 24 19 20 21 24 26
46 46 46 46 46 45 46 48 48 48 49 50 51 52 51 50 51 51 52 51 49 49 47 44 42 37 41 31 37 35 40 37 21 12 15 19 27 27 25 25 18 19 20 21 19 20 26
46 45 45 45 44 46 47 47 48 48 48 49 50 51 52 50 50 51 48 42 37 41 43 37 35 36 33 36 39 34 29 33 24 21 12 22 21 23 21 25 24 20 17 14 19 21 23
46 46 47 47 47 48 48 48 48 47 49 50 51 51 51 50 51 51 45 38 39 39 36 38 38 38 39 39 36 37 29 21 23 16 14 23 18 18 25 25 25 23 17 16 20 26 26
47 47 47 47 48 48 47 47 47 48 50 51 52 51 51 50 51 44 39 40 41 37 36 35 35 35 36 37 37 30 35 23 21 15 13 10 14 19 25 27 24 22 20 20 20 26 28
46 46 46 47 49 48 48 48 48 48 49 51 52 51 51 51 42 41 41 39 44 42 31 28 32 33 34 33 30 29 32 25 17 14 10 11 11 17 27 27 26 24 25 23 25 26 21
46 46 47 48 48 48 49 49 50 49 51 51 52 50 51 50 42 39 40 45 44 40 16 10 22 33 33 27 25 24 29 28 24 11 14 9 12 16 21 25 28 25 26 26 28 27 25
46 47 48 49 48 49 50 50 50 51 51 51 51 50 50 46 44 43 45 44 41 28 15 17 22 23 20 29 30 27 29 28 28 13 11 9 14 12 19 24 24 24 23 25 26 25 22
47 47 48 48 49 50 50 50 51 51 51 51 51 50 49 46 39 43 43 39 26 20 21 18 23 24 19 24 24 25 26 24 23 21 16 15 9 16 15 14 24 22 20 18 20 21 21
47 47 48 49 50 50 50 50 50 51 51 51 50 49 46 45 44 45 40 32 20 18 18 23 25 19 17 25 26 28 28 25 21 21 19 16 14 11 17 15 15 21 21 19 14 19 22
47 47 47 48 49 50 50 50 50 50 50 50 47 43 42 43 45 45 35 24 20 23 25 24 23 19 20 21 26 30 28 26 22 19 16 17 15 17 13 15 14 18 19 21 22 25 22
48 48 48 49 50 50 50 50 50 50 50 49 43 41 39 44 46 45 32 24 27 27 25 24 21 23 19 19 23 28 28 31 30 31 19 18 15 16 15 15 16 16 20 19 19 18 18
50 49 49 50 50 50 50 50 50 50 50 48 39 33 37 46 45 39 29 26 27 27 27 26 25 25 20 22 25 28 31 34 32 29 31 19 17 18 17 15 13 15 16 19 20 22 21
49 49 50 50 50 50 50 50 50 50 49 44 39 27 39 44 35 33 28 30 33 30 29 27 29 27 24 25 26 29 31 32 36 31 28 32 20 16 16 16 15 14 14 21 15 21 22
48 48 49 49 50 50 50 50 50 50 49 44 36 34 39 42 28 29 30 30 30 28 27 26 25 24 23 23 23 26 30 33 35 33 31 31 25 16 17 18 19 13 14 14 20 24 20
46 46 46 47 48 49 49 50 50 50 50 39 36 28 32 36 36 32 29 27 29 30 28 27 25 24 25 25 26 28 27 29 36 34 40 32 28 25 13 15 18 16 14 13 13 15 19
45 45 45 46 46 47 48 49 50 49 49 39 33 29 33 29 26 30 32 29 28 28 32 30 27 28 28 26 28 30 32 33 33 38 35 30 26 29 29 27 21 20 15 14 12 13 14
45 45 45 45 46 47 47 48 49 49 47 37 32 35 34 33 33 29 27 26 28 29 29 29 28 28 27 25 27 28 30 33 32 34 33 30 26 27 28 27 26 18 15 14 13 13 13
46 46 45 44 45 46 47 48 49 49 46 41 40 41 38 32 31 30 29 29 29 30 30 31 29 27 27 26 31 29 31 34 34 32 32 29 26 25 22 25 20 15 15 17 17 15 14
46 45 45 45 45 45 46 47 48 49 48 45 43 42 36 29 33 31 30 31 30 32 32 32 31 29 29 30 31 30 31 32 35 35 34 30 29 26 23 28 16 23 38 25 22 37 38
45 45 45 44 45 45 46 48 48 49 49 46 44 42 37 30 32 32 33 33 33 32 32 30 31 32 32 32 29 25 28 30 30 33 36 36 37 27 25 26 24 37 36 37 37 39 37
44 44 45 45 46 46 47 48 48 49 49 46 45 45 41 35 30 34 34 35 33 33 33 31 32 34 35 32 29 19 24 28 27 31 37 34 32 27 28 25 20 34 35 38 40 33 36
45 45 45 45 46 47 47 48 48 49 49 46 44 43 42 36 34 35 34 34 37 36 34 32 31 34 33 29 19 19 25 27 26 26 28 31 32 24 26 24 34 35 35 37 30 30 36
44 45 46 46 46 46 47 48 49 49 50 47 44 41 43 38 35 36 37 35 37 37 34 33 33 34 32 27 29 31 32 32 30 32 32 31 30 32 31 30 31 37 34 32 34 37 37
44 44 45 46 47 46 47 48 49 49 50 48 42 42 46 41 38 39 39 39 39 38 38 37 33 35 35 34 34 35 32 33 33 29 37 32 35 33 35 34 36 36 36 38 39 38 36
Lifted_Index
15 15 15 15 15 15 15 15 15 15 15 15 15 15 14 14 14 14 14 14 14 14 14 13 13 12 12 11 10 10 9 7 5 4 4 3 2 2 2 2 2 2 2 1 1 2 2
15 16 16 16 15 16 16 16 16 15 15 15 15 15 15 15 15 14 14 14 14 15 14 14 13 13 12 11 11 11 10 8 7 6 5 4 3 2 2 2 2 2 2 2 2 2 3
16 16 16 16 16 16 17 16 16 16 16 16 15 15 15 16 15 15 15 14 14 15 15 15 14 13 12 11 11 11 11 10 8 7 6 5 4 4 4 3 3 3 3 3 3 3 4
17 17 17 17 17 17 17 17 17 16 16 16 16 16 16 16 16 16 15 15 14 15 15 15 15 14 13 12 12 11 10 9 9 8 7 6 6 5 5 4 3 3 3 3 3 4 4
17 17 17 17 17 18 18 17 17 17 17 17 16 16 16 16 16 16 15 15 15 15 15 15 15 14 13 13 12 11 10 9 9 9 8 7 7 6 5 4 3 3 3 3 3 3 3
17 18 18 18 18 18 18 18 18 18 18 17 17 17 17 17 17 16 16 16 15 14 15 15 15 15 14 13 12 12 11 9 8 8 8 8 7 6 5 4 4 3 3 3 3 3 3
18 18 18 18 18 19 18 18 18 18 18 18 17 17 17 17 16 16 16 16 15 14 14 15 15 15 14 13 12 11 10 9 8 7 7 7 6 5 5 5 4 3 3 2 3 3 3
17 18 18 18 18 18 18 18 18 18 18 17 17 16 15 15 14 14 14 14 13 13 13 13 14 14 14 13 12 11 10 9 7 5 5 5 5 5 6 5 4 3 3 3 3 3 3
17 17 18 18 18 18 18 18 18 18 17 16 15 13 12 10 10 10 10 9 9 9 10 11 11 12 13 13 12 11 9 8 6 5 4 4 5 5 5 5 4 3 3 3 3 3 3
18 18 17 17 17 18 18 18 17 16 15 12 10 9 7 7 7 7 7 6 6 5 6 7 8 9 10 12 12 11 9 8 6 5 5 5 5 5 4 4 4 3 3 3 3 3 3
17 17 17 17 17 17 17 16 15 13 10 8 6 5 5 5 5 5 5 4 4 3 3 4 5 6 8 9 11 10 9 8 7 6 6 6 6 5 5 4 4 4 4 4 4 3 3
17 17 17 16 16 16 15 14 12 9 7 5 4 4 4 4 4 4 4 3 3 2 2 3 3 4 5 7 8 9 9 8 7 6 6 6 6 6 5 5 5 5 4 4 3 3 3
16 16 16 16 15 15 13 11 9 6 5 4 4 4 4 4 4 4 3 3 2 2 2 2 2 3 3 4 6 7 8 8 7 6 6 6 6 7 7 6 6 5 4 3 2 2 2
16 16 16 15 14 13 11 9 6 5 4 4 4 4 4 3 3 3 3 2 2 2 1 1 2 2 2 3 4 6 7 8 8 7 6 5 5 6 7 7 6 5 4 3 1 1 1
15 15 15 14 13 11 9 7 5 4 4 3 4 4 3 2 2 2 2 2 2 1 1 1 2 2 2 3 4 4 5 6 7 7 6 5 5 6 7 7 6 5 4 3 2 2 1
15 15 14 13 11 9 7 5 4 4 3 3 4 3 2 1 1 1 1 1 1 1 1 1 2 2 3 4 4 3 3 4 6 7 7 6 5 5 6 6 6 6 5 4 4 2 1
14 14 13 12 10 7 6 5 4 3 3 3 3 2 1 0 0 1 1 1 1 1 1 2 2 2 3 4 4 3 2 4 6 6 7 6 6 5 5 6 6 5 5 5 4 3 2
14 13 12 10 8 6 5 4 3 2 2 3 3 2 1 0 0 1 1 1 1 1 1 1 2 2 3 4 4 4 3 4 6 7 7 7 6 5 5 6 6 5 5 5 5 4 4
14 13 12 10 7 5 4 3 3 2 2 3 3 2 1 0 1 1 1 1 1 1 1 1 2 2 3 3 4 5 5 6 6 7 7 7 6 5 4 5 6 6 6 6 5 5 4
14 13 12 10 7 5 4 3 2 2 2 3 3 2 2 1 1 1 1 1 1 1 1 1 1 2 2 3 4 5 6 6 6 6 7 8 7 5 4 5 6 6 6 6 6 5 4
14 13 12 9 7 6 4 3 2 2 2 3 3 3 2 2 1 1 1 1 1 1 0 1 1 2 2 2 3 4 5 6 6 6 7 8 7 6 5 5 6 6 5 5 5 5 4
14 13 12 9 7 6 5 3 2 2 2 3 3 3 2 2 1 1 2 2 1 1 1 1 1 2 2 2 2 3 5 6 6 6 7 7 7 6 5 5 5 5 5 5 5 5 5
14 13 11 9 8 6 5 4 3 2 2 3 3 3 3 2 2 2 2 2 2 2 1 1 2 2 2 3 2 3 5 6 6 6 6 7 7 6 4 4 4 5 5 5 5 5 5
14 13 11 10 8 6 5 4 3 2 3 3 3 3 3 2 2 2 2 1 2 2 2 1 2 2 2 2 3 3 5 6 6 6 6 7 7 6 4 3 3 4 5 5 5 5 5
14 13 12 10 8 6 5 4 3 2 2 3 3 3 3 2 2 1 1 1 1 1 1 1 1 1 1 2 2 3 4 5 5 5 6 6 6 5 4 3 3 3 4 4 4 4 5
14 13 12 10 8 6 5 3 3 2 2 3 3 3 3 3 2 2 1 1 1 1 1 1 1 0 0 1 1 2 4 4 4 4 4 5 5 4 3 2 2 3 3 3 4 4 4
14 13 12 10 9 7 5 4 3 3 2 3 3 3 3 3 2 2 2 1 1 1 1 1 0 0 -0 0 1 2 3 4 4 4 4 4 3 3 2 2 2 2 2 2 3 4 5
14 14 12 11 9 8 6 4 3 3 3 3 3 4 3 3 3 3 2 2 1 1 1 0 0 0 0 0 1 1 2 3 4 4 4 3 2 2 2 2 2 3 3 4 5 5 5
14 14 12 11 9 8 7 5 4 3 3 3 4 4 4 4 3 3 2 2 1 1 1 0 0 0 0 1 1 1 2 3 4 4 4 3 3 2 2 2 3 4 5 5 6 6 6